Simultaneous Nadir Overpasses (SNOs) Predictions

Prediction of SNOs between GOES-14 and NOAA-20 Satellite Orbit:

Table of predicted SNOs for the next 14.0 days since TLE Epoch: 9/25/2021
Index Date Time (GOES-14) GOES-14 Lat,Lon NOAA-20 Lat,Lon Distance(km) Time Diff (sec)
1 09/25/2021 20:04:56 -0.35,-104.26 0.61, -99.88 498.43 80
2 09/27/2021 08:26:43 0.34,-104.21 0.56,-105.15 107.19 80
3 09/28/2021 08:05:19 0.34,-104.20 -0.48,-100.63 407.92 80
4 09/29/2021 20:27:15 -0.33,-104.23 -0.68,-105.93 194.18 80
5 09/30/2021 20:11:10 -0.33,-104.23 0.30,-101.40 323.32 80
6 10/02/2021 08:32:57 0.31,-104.23 0.86,-106.67 278.26 80
7 10/03/2021 08:11:31 0.32,-104.21 -0.12,-102.13 236.90 80
8 10/04/2021 20:33:28 -0.29,-104.20 -1.04,-107.44 369.39 80
9 10/05/2021 20:17:23 -0.30,-104.21 0.01,-102.91 148.36 80
10 10/07/2021 08:39:11 0.28,-104.24 1.16,-108.18 448.76 80
11 10/08/2021 08:17:45 0.30,-104.23 0.17,-103.64 66.47 80
